Etusivu
METAR-TAF:

METAR-TAF

Lentoasemat :

Pajala-Ylläksen lentoasema

Pajala, Ruotsi

Leveyspiiri: 67-14-44N, Pituuspiiri: 023-04-08E, korkeus merenpinnasta: 165 m

Tämänhetkinen sää

Tämä raportti tehtiin 30 minuuttia sitten, kello 01.50 UTC
Tuuli 3 kn eri suunnista
Lämpötila 11°C
Kosteus 87%
Ilmanpaine 1014 hPa
Näkyvyys 10 km tai enemmän

METAR: ESUP 130150Z AUTO VRB03KT 9999 // OVC036/// 11/09 Q1014 RERA

Aika: 04:20 (02:20 UTC)


TAF: puuttuu

Säähavainnot ja -ennusteet yli 4000 lentoasemalta (METAR- ja TAF-raportit).

Käytössä olevat sääasemat on merkitty karttaan keltaisilla ja punaisilla pisteillä.

Aseta hiiri pisteen päälle nähdäksesi sääaseman nimen.

Klikkaa sitten nähdäksesi säähavainnot ja -ennusteet.

Kartan vaihtaminen: klikkaa mustalla rastilla varustettuja vihreitä pisteitä, niin voit zoomata sisään; viivalla varustettua vihreää pistettä, niin voit zoomata ulos tai vihreitä nuolia, niin pääset viereisille kartoille.


METAR-TAF: